Home   Weather   Italy   La Spezia   Past weeks
Flag for Italy

Past Weather in La Spezia, Italy — Yesterday and Last 2 Weeks

Currently: 79 °F. Sunny. (Weather station: Pisa / S. Giusto, Italy). See more current weather

Past Weather in La Spezia — Graph

°F

La Spezia Temperature Yesterday

Maximum temperature yesterday: 88 °F (at 11:15 am)
Minimum temperature yesterday: 77 °F (at 2:15 am)
Average temperature yesterday: 83 °F

High & Low Weather Summary for the Past Weeks

 TemperatureHumidityPressure
High91 °F (Jul 9, 2:45 pm)100% (Jul 7, 3:45 am)30.04 "Hg (Jul 7, 3:45 am)
Low66 °F (Jul 9, 3:45 am)36% (Jul 15, 1:15 pm)29.77 "Hg (Jul 20, 6:45 pm)
Average80 °F78%29.93 "Hg
* Reported Jul 6 8:15 am — Jul 21 8:15 am, La Spezia. Weather by CustomWeather, © 2024

Note: Actual official high and low records may vary slightly from our data, if they occured in-between our weather recording intervals... More about our weather records

La Spezia Weather History for the Previous 24 Hours

Scroll right to see more
 ConditionsComfort  
Time TempWeatherWind HumidityBarometerVisibility
8:15 am
Sun, Jul 21
79 °FSunny.7 mph94%29.80 "Hg10 mi
6:45 am73 °FPassing clouds.5 mph100%29.77 "HgN/A
6:15 am73 °FSunny.5 mph100%29.77 "Hg10 mi
5:15 am73 °FPassing clouds.6 mph100%29.77 "HgN/A
4:45 am75 °FPassing clouds.6 mph100%29.77 "HgN/A
4:15 am75 °FPassing clouds.3 mph94%29.77 "HgN/A
3:45 am75 °FPassing clouds.1 mph100%29.77 "HgN/A
3:15 am75 °FClear.5 mph94%29.80 "Hg10 mi
2:45 am75 °FClear.1 mph94%29.80 "Hg10 mi
2:15 am73 °FClear.3 mph100%29.80 "Hg10 mi
1:45 am73 °FClear.6 mph100%29.80 "Hg10 mi
1:15 am73 °FClear.3 mph100%29.80 "Hg10 mi
12:45 am75 °FClear.3 mph100%29.80 "Hg10 mi
12:15 am75 °FClear.1 mph100%29.80 "Hg10 mi
11:45 pm
Sat, Jul 20
77 °FClear.2 mph100%29.80 "Hg10 mi
11:15 pm77 °FClear.1 mph100%29.80 "Hg10 mi
10:45 pm79 °FClear.2 mph94%29.80 "Hg10 mi
9:15 pm81 °FClear.5 mph89%29.77 "Hg10 mi
8:45 pm82 °FSunny.6 mph84%29.77 "Hg10 mi
8:15 pm86 °FSunny.7 mph70%29.77 "Hg10 mi
7:45 pm84 °FSunny.6 mph70%29.77 "Hg10 mi
7:15 pm86 °FSunny.7 mph66%29.77 "Hg10 mi
6:45 pm86 °FSunny.8 mph66%29.77 "Hg10 mi
6:15 pm86 °FSunny.8 mph66%29.80 "Hg10 mi
5:45 pm86 °FSunny.9 mph75%29.80 "Hg10 mi
5:15 pm88 °FPassing clouds.10 mph66%29.80 "HgN/A
4:45 pm88 °FPassing clouds.10 mph66%29.80 "HgN/A
4:15 pm88 °FSunny.12 mph70%29.80 "Hg10 mi
3:45 pm88 °FSunny.12 mph70%29.80 "Hg10 mi
2:45 pm88 °FPassing clouds.12 mph70%29.83 "HgN/A
2:15 pm88 °FPassing clouds.9 mph70%29.83 "HgN/A
1:45 pm88 °FPassing clouds.10 mph70%29.83 "HgN/A
1:15 pm88 °FScattered clouds.9 mph70%29.83 "HgN/A
12:45 pm88 °FScattered clouds.8 mph70%29.83 "HgN/A
12:15 pm88 °FScattered clouds.9 mph75%29.83 "HgN/A
11:45 am86 °FScattered clouds.12 mph75%29.83 "HgN/A
11:15 am88 °FScattered clouds.10 mph79%29.83 "HgN/A
10:15 am84 °FScattered clouds.9 mph84%29.83 "HgN/A
9:15 am82 °FPartly sunny.3 mph89%29.83 "HgN/A
Weather by CustomWeather, © 2024

See weather overview